Powrót do katalogu

STARLINK-31506

AktywnyŁącznośćVLEO
NORAD 59259·PAYLOAD·🇺🇸 United States

Wystrzelony Mar 19, 2024 z Vandenberg Space Force Base

Loading…

Następne Przeloty (najbliższe 24 godziny)

TLE

ŚwieżeSource: CelesTrak SupGP

Epoka: Sep 15, 2026, 02:56 UTC

1 59259C 24050F   26258.12270833  .00036711  00000+0  10844-2 0  2584
2 59259  53.1615  20.5121 0001108  71.8340 153.6429 15.34380516    14

Śledź STARLINK-31506 w czasie rzeczywistym z AllMySat

Download on the App Store